CTN664 LDZA-LDDU

Flight info

Callsign CTN664
Flight time 0h 39m
Altitude 33000
Route TEBLI L187 BARIT P10 NETKO
Aircraft A319/M-SDE3FGHIRWY/LB1

Departure

Time 2026-04-29 03:53
Airport Zagreb Franjo Tuđman International Airport (LDZA)

Arrival

Time 2026-04-29 04:32
Airport Dubrovnik Ruđer Bošković Airport (LDDU)
Time Latitude Longitude Altitude Speed Heading
2026-04-29 03:35 45.74180 16.07835 359 ft 0 kts 136°
2026-04-29 03:44 45.74192 16.07820 366 ft 2 kts 136°
2026-04-29 03:44 45.74202 16.07805 364 ft 2 kts 136°
2026-04-29 03:44 45.74214 16.07789 362 ft 2 kts 136°
2026-04-29 03:45 45.74226 16.07773 361 ft 2 kts 143°
2026-04-29 03:45 45.74240 16.07763 361 ft 2 kts 180°
2026-04-29 03:45 45.74256 16.07766 359 ft 2 kts 223°
2026-04-29 03:45 45.74267 16.07783 362 ft 2 kts 229°
2026-04-29 03:46 45.74277 16.07799 365 ft 2 kts 229°
2026-04-29 03:46 45.74279 16.07802 360 ft 0 kts 229°
2026-04-29 03:47 45.74277 16.07799 365 ft 2 kts 229°
2026-04-29 03:47 45.74262 16.07775 360 ft 5 kts 229°
2026-04-29 03:48 45.74233 16.07727 362 ft 8 kts 227°
2026-04-29 03:48 45.74188 16.07659 360 ft 11 kts 227°
2026-04-29 03:48 45.74131 16.07571 364 ft 13 kts 227°
2026-04-29 03:48 45.74070 16.07478 363 ft 11 kts 229°
2026-04-29 03:49 45.74087 16.07382 360 ft 12 kts 317°
2026-04-29 03:49 45.74149 16.07300 359 ft 13 kts 317°
2026-04-29 03:49 45.74214 16.07212 359 ft 10 kts 312°
2026-04-29 03:49 45.74196 16.07124 359 ft 11 kts 227°
2026-04-29 03:50 45.74144 16.07043 361 ft 12 kts 227°
2026-04-29 03:50 45.74086 16.06955 359 ft 13 kts 227°
2026-04-29 03:50 45.74024 16.06860 359 ft 13 kts 226°
2026-04-29 03:50 45.73957 16.06760 359 ft 15 kts 226°
2026-04-29 03:51 45.73885 16.06651 362 ft 15 kts 226°
2026-04-29 03:51 45.73809 16.06536 363 ft 16 kts 226°
2026-04-29 03:51 45.73745 16.06438 359 ft 10 kts 229°
2026-04-29 03:51 45.73768 16.06361 360 ft 9 kts 320°
2026-04-29 03:52 45.73816 16.06299 361 ft 9 kts 317°
2026-04-29 03:52 45.73867 16.06246 363 ft 9 kts 354°
2026-04-29 03:52 45.73928 16.06324 365 ft 29 kts 47°
2026-04-29 03:52 45.74278 16.06855 359 ft 113 kts 47°
2026-04-29 03:53 45.74937 16.07859 651 ft 145 kts 46°
2026-04-29 03:53 45.75603 16.08916 1412 ft 143 kts 46°
2026-04-29 03:53 45.76257 16.09993 2125 ft 150 kts 54°
2026-04-29 03:53 45.76452 16.11582 2528 ft 180 kts 93°
2026-04-29 03:54 45.76186 16.13463 2947 ft 204 kts 100°
2026-04-29 03:54 45.75853 16.15550 3458 ft 226 kts 102°
2026-04-29 03:54 45.75485 16.17787 4383 ft 233 kts 103°
2026-04-29 03:54 45.74993 16.20076 5126 ft 252 kts 118°
2026-04-29 03:55 45.73775 16.21933 5963 ft 263 kts 148°
2026-04-29 03:55 45.72127 16.23130 6990 ft 268 kts 155°
2026-04-29 03:55 45.70429 16.24303 7933 ft 275 kts 156°
2026-04-29 03:55 45.68684 16.25505 8865 ft 282 kts 157°
2026-04-29 03:56 45.66884 16.26739 9756 ft 291 kts 158°
2026-04-29 03:56 45.65016 16.28017 10407 ft 309 kts 158°
2026-04-29 03:56 45.63029 16.29374 10788 ft 333 kts 158°
2026-04-29 03:56 45.60892 16.30842 11403 ft 346 kts 158°
2026-04-29 03:57 45.58695 16.32359 12207 ft 354 kts 157°
2026-04-29 03:57 45.56464 16.33902 13025 ft 360 kts 157°
2026-04-29 03:57 45.54187 16.35477 13825 ft 367 kts 157°
2026-04-29 03:57 45.51878 16.37068 14540 ft 373 kts 157°
2026-04-29 03:58 45.49520 16.38691 15282 ft 377 kts 157°
2026-04-29 03:58 45.47149 16.40321 16039 ft 381 kts 157°
2026-04-29 03:58 45.44750 16.41967 16794 ft 385 kts 157°
2026-04-29 03:58 45.42321 16.43629 17546 ft 388 kts 158°
2026-04-29 03:59 45.39880 16.45294 18291 ft 392 kts 158°
2026-04-29 03:59 45.37397 16.46989 18938 ft 397 kts 158°
2026-04-29 03:59 45.34896 16.48695 19516 ft 402 kts 157°
2026-04-29 03:59 45.32357 16.50425 20124 ft 407 kts 158°
2026-04-29 04:00 45.29776 16.52184 20720 ft 412 kts 158°
2026-04-29 04:00 45.27163 16.53960 21308 ft 418 kts 158°
2026-04-29 04:00 45.24566 16.55722 21891 ft 423 kts 158°
2026-04-29 04:00 45.21855 16.57560 22485 ft 428 kts 158°
2026-04-29 04:01 45.19198 16.59364 23056 ft 433 kts 158°
2026-04-29 04:01 45.16463 16.61219 23623 ft 438 kts 158°
2026-04-29 04:01 45.13705 16.63085 24086 ft 442 kts 158°
2026-04-29 04:01 45.10925 16.64963 24647 ft 442 kts 158°
2026-04-29 04:02 45.08138 16.66847 25144 ft 445 kts 158°
2026-04-29 04:02 45.05333 16.68745 25621 ft 448 kts 158°
2026-04-29 04:02 45.02508 16.70652 26064 ft 452 kts 158°
2026-04-29 04:02 44.99662 16.72569 26507 ft 455 kts 159°
2026-04-29 04:03 44.96790 16.74500 26959 ft 458 kts 159°
2026-04-29 04:03 44.93899 16.76442 27413 ft 461 kts 159°
2026-04-29 04:03 44.90987 16.78395 27871 ft 464 kts 159°
2026-04-29 04:03 44.88059 16.80359 28348 ft 466 kts 159°
2026-04-29 04:04 44.85127 16.82324 28789 ft 469 kts 159°
2026-04-29 04:04 44.82173 16.84299 29229 ft 472 kts 159°
2026-04-29 04:04 44.79191 16.86285 29644 ft 475 kts 159°
2026-04-29 04:04 44.76191 16.88280 30048 ft 478 kts 159°
2026-04-29 04:05 44.73213 16.90261 30393 ft 481 kts 159°
2026-04-29 04:05 44.70185 16.92281 30736 ft 483 kts 159°
2026-04-29 04:05 44.67142 16.94311 31107 ft 485 kts 159°
2026-04-29 04:05 44.64087 16.96344 31461 ft 487 kts 159°
2026-04-29 04:06 44.61018 16.98380 31789 ft 489 kts 159°
2026-04-29 04:06 44.57943 17.00416 32244 ft 488 kts 159°
2026-04-29 04:06 44.54868 17.02452 32723 ft 487 kts 159°
2026-04-29 04:06 44.51801 17.04481 33061 ft 487 kts 159°
2026-04-29 04:07 44.45698 17.08509 33145 ft 483 kts 159°
2026-04-29 04:07 44.39616 17.12516 33142 ft 480 kts 159°
2026-04-29 04:08 44.33583 17.16486 33145 ft 478 kts 159°
2026-04-29 04:08 44.27560 17.20428 33144 ft 478 kts 159°
2026-04-29 04:09 44.21595 17.24318 33144 ft 477 kts 159°
2026-04-29 04:09 44.15575 17.28236 33144 ft 476 kts 159°
2026-04-29 04:10 44.09575 17.32138 33141 ft 476 kts 159°
2026-04-29 04:10 44.03570 17.36045 33115 ft 476 kts 158°
2026-04-29 04:11 43.97577 17.39931 33120 ft 475 kts 158°
2026-04-29 04:11 43.91584 17.43802 33120 ft 475 kts 158°
2026-04-29 04:12 43.88601 17.45729 32909 ft 470 kts 158°
2026-04-29 04:12 43.85662 17.47628 32375 ft 463 kts 159°
2026-04-29 04:12 43.82751 17.49504 31841 ft 460 kts 159°
2026-04-29 04:12 43.79846 17.51371 31341 ft 459 kts 158°
2026-04-29 04:13 43.76968 17.53221 30842 ft 453 kts 158°
2026-04-29 04:13 43.75068 17.54444 30508 ft 451 kts 158°
2026-04-29 04:13 43.71327 17.56845 29723 ft 445 kts 158°
2026-04-29 04:13 43.68535 17.58637 29092 ft 441 kts 158°
2026-04-29 04:14 43.65750 17.60391 28490 ft 437 kts 161°
2026-04-29 04:14 43.62869 17.61503 27904 ft 427 kts 172°
2026-04-29 04:14 43.59984 17.62318 27301 ft 418 kts 173°
2026-04-29 04:14 43.58076 17.62853 26920 ft 410 kts 173°
2026-04-29 04:15 43.55351 17.63610 26370 ft 400 kts 173°
2026-04-29 04:15 43.52618 17.64368 25818 ft 391 kts 173°
2026-04-29 04:15 43.50005 17.65091 25290 ft 384 kts 173°
2026-04-29 04:15 43.47392 17.65813 24759 ft 380 kts 173°
2026-04-29 04:16 43.44805 17.66527 24226 ft 377 kts 173°
2026-04-29 04:16 43.42247 17.67230 23655 ft 373 kts 173°
2026-04-29 04:16 43.39719 17.67922 22975 ft 369 kts 173°
2026-04-29 04:16 43.37211 17.68612 22292 ft 365 kts 173°
2026-04-29 04:17 43.34731 17.69297 21646 ft 362 kts 173°
2026-04-29 04:17 43.32280 17.69975 21008 ft 357 kts 173°
2026-04-29 04:17 43.29863 17.70644 20447 ft 350 kts 173°
2026-04-29 04:17 43.27503 17.71301 19911 ft 344 kts 173°
2026-04-29 04:18 43.25170 17.71950 19368 ft 339 kts 173°
2026-04-29 04:18 43.22862 17.72586 18818 ft 335 kts 173°
2026-04-29 04:18 43.20583 17.73211 18252 ft 332 kts 172°
2026-04-29 04:18 43.18361 17.73819 17641 ft 328 kts 172°
2026-04-29 04:19 43.16126 17.74431 17071 ft 325 kts 172°
2026-04-29 04:19 43.13928 17.75030 16556 ft 320 kts 172°
2026-04-29 04:19 43.11762 17.75619 16051 ft 316 kts 172°
2026-04-29 04:19 43.09616 17.76204 15547 ft 312 kts 172°
2026-04-29 04:20 43.07496 17.76316 15029 ft 301 kts 194°
2026-04-29 04:20 43.05578 17.75302 14453 ft 294 kts 213°
2026-04-29 04:20 43.03815 17.73872 13844 ft 294 kts 215°
2026-04-29 04:20 43.02073 17.72401 13168 ft 295 kts 215°
2026-04-29 04:21 43.00339 17.70916 12516 ft 294 kts 215°
2026-04-29 04:21 42.98614 17.69431 11874 ft 293 kts 215°
2026-04-29 04:21 42.96886 17.67938 11244 ft 292 kts 215°
2026-04-29 04:21 42.95175 17.66455 10631 ft 290 kts 215°
2026-04-29 04:22 42.93479 17.64981 10027 ft 288 kts 215°
2026-04-29 04:22 42.91687 17.63815 9366 ft 288 kts 196°
2026-04-29 04:22 42.89694 17.63658 8772 ft 288 kts 173°
2026-04-29 04:22 42.87831 17.64571 8256 ft 284 kts 149°
2026-04-29 04:23 42.86371 17.66314 7837 ft 278 kts 135°
2026-04-29 04:23 42.85036 17.68197 7418 ft 275 kts 135°
2026-04-29 04:23 42.83715 17.70059 6955 ft 272 kts 135°
2026-04-29 04:23 42.82425 17.71876 6481 ft 268 kts 136°
2026-04-29 04:24 42.81115 17.73715 5956 ft 265 kts 136°
2026-04-29 04:24 42.79850 17.75486 5467 ft 262 kts 136°
2026-04-29 04:24 42.78591 17.77250 5076 ft 257 kts 136°
2026-04-29 04:24 42.77341 17.79001 5021 ft 259 kts 136°
2026-04-29 04:25 42.76083 17.80766 5019 ft 260 kts 136°
2026-04-29 04:25 42.74823 17.82533 5020 ft 260 kts 136°
2026-04-29 04:25 42.73565 17.84296 5015 ft 259 kts 136°
2026-04-29 04:25 42.72324 17.86089 5014 ft 261 kts 131°
2026-04-29 04:26 42.71330 17.88148 5011 ft 257 kts 121°
2026-04-29 04:26 42.70528 17.90235 5014 ft 242 kts 119°
2026-04-29 04:26 42.69752 17.92260 5015 ft 241 kts 120°
2026-04-29 04:26 42.68974 17.94249 5016 ft 241 kts 120°
2026-04-29 04:27 42.68185 17.96259 5011 ft 241 kts 120°
2026-04-29 04:27 42.67396 17.98270 4807 ft 240 kts 120°
2026-04-29 04:27 42.66616 18.00258 4511 ft 237 kts 120°
2026-04-29 04:27 42.65847 18.02216 4204 ft 234 kts 120°
2026-04-29 04:28 42.65085 18.04153 3897 ft 230 kts 120°
2026-04-29 04:28 42.64332 18.06066 3586 ft 228 kts 120°
2026-04-29 04:28 42.63592 18.07947 3295 ft 224 kts 119°
2026-04-29 04:28 42.62874 18.09771 3001 ft 215 kts 120°
2026-04-29 04:29 42.62184 18.11522 2737 ft 205 kts 119°
2026-04-29 04:29 42.61512 18.13226 2452 ft 204 kts 119°
2026-04-29 04:29 42.60843 18.14918 2167 ft 201 kts 118°
2026-04-29 04:29 42.60199 18.16550 1917 ft 192 kts 118°
2026-04-29 04:30 42.59596 18.18078 1679 ft 175 kts 117°
2026-04-29 04:30 42.59044 18.19473 1430 ft 162 kts 117°
2026-04-29 04:30 42.58082 18.21903 1034 ft 132 kts 117°
2026-04-29 04:31 42.57657 18.22966 863 ft 125 kts 118°
2026-04-29 04:31 42.57252 18.24005 686 ft 125 kts 117°
2026-04-29 04:31 42.56850 18.25026 569 ft 121 kts 118°
2026-04-29 04:31 42.56489 18.25935 536 ft 92 kts 118°
2026-04-29 04:32 42.56255 18.26528 533 ft 61 kts 118°
2026-04-29 04:32 42.56069 18.26995 534 ft 44 kts 118°
2026-04-29 04:32 42.55979 18.27222 533 ft 20 kts 118°
2026-04-29 04:32 42.55890 18.27327 532 ft 17 kts 173°
2026-04-29 04:33 42.55812 18.27340 533 ft 8 kts 173°
2026-04-29 04:33 42.55768 18.27317 534 ft 7 kts 242°
2026-04-29 04:33 42.55767 18.27289 534 ft 0 kts 286°
2026-04-29 04:34 42.55771 18.27279 534 ft 4 kts 294°
2026-04-29 04:34 42.55794 18.27217 534 ft 10 kts 297°
2026-04-29 04:34 42.55830 18.27126 534 ft 11 kts 298°
2026-04-29 04:34 42.55869 18.27028 534 ft 12 kts 298°
2026-04-29 04:35 42.55912 18.26919 534 ft 14 kts 298°
2026-04-29 04:35 42.55958 18.26800 534 ft 15 kts 298°
2026-04-29 04:35 42.56007 18.26679 534 ft 15 kts 299°
2026-04-29 04:35 42.56049 18.26573 534 ft 13 kts 298°
2026-04-29 04:36 42.56084 18.26486 534 ft 7 kts 298°
2026-04-29 04:36 42.56108 18.26426 534 ft 8 kts 298°
2026-04-29 04:36 42.56136 18.26355 534 ft 9 kts 298°
2026-04-29 04:36 42.56167 18.26276 534 ft 7 kts 298°
2026-04-29 04:37 42.56165 18.26228 534 ft 5 kts 223°
2026-04-29 04:37 42.56141 18.26210 534 ft 4 kts 208°
2026-04-29 04:37 42.56127 18.26201 534 ft 0 kts 208°
2026-04-29 04:37 42.56127 18.26200 534 ft 0 kts 208°